Volver al catálogo

EUTE 12 WEST B

ActivoComunicacionesGEO
NORAD 26927·PAYLOAD·🇪🇺 EU

Lanzado Sep 25, 2001 desde Guiana Space Centre

Loading…

TLE

ActualizadoSource: Space-Track

Época: Sep 14, 2026, 14:03 UTC

1 26927U 01042A   26257.58567439  .00000014  00000-0  00000+0 0  9996
2 26927   6.8434  69.7497 0005019 213.5967 334.3399  0.98526578 91030

Sigue EUTE 12 WEST B en tiempo real con AllMySat

Download on the App Store